FW2664 Weather Reports


time (UTC)temp
C
wind
direction
speed
KPH
gust
KPH
rain 1hr
cm
rain 24hr
cm
rain mn
cm
humidity
%
barometer
mb
20260906022413 28 44 3.2 3.2 0.00 0.00 0.00 66 1010.0
20260906021908 28 118 3.2 3.2 0.00 0.00 0.00 64 1010.2
20260906021409 29 99 3.2 3.2 0.00 0.00 0.00 63 1010.3
20260906020903 29 246 0.0 0.0 0.00 0.00 0.00 61 1010.5
20260906020403 29 81 0.0 3.2 0.00 0.00 0.00 61 1010.5
20260906015857 29 4 3.2 4.8 0.00 0.00 0.00 61 1010.5
20260906015356 29 17 1.6 4.8 0.00 0.00 0.00 60 1009.9
20260906014856 29 346 3.2 4.8 0.00 0.00 0.00 60 1010.1
20260906014356 29 356 3.2 3.2 0.00 0.00 0.00 59 1009.6
20260906013853 29 15 3.2 3.2 0.00 0.00 0.00 60 1009.7
20260906013348 29 69 0.0 3.2 0.00 0.00 0.00 60 1009.7
20260906012843 29 128 0.0 3.2 0.00 0.00 0.00 62 1010.0
20260906012338 29 174 1.6 3.2 0.00 0.00 0.00 61 1009.8
20260906011838 28 63 0.0 3.2 0.00 0.00 0.00 63 1010.0
20260906011333 28 126 1.6 3.2 0.00 0.00 0.00 63 1010.0
20260906010829 29 11 0.0 3.2 0.00 0.00 0.00 62 1009.9
20260906010325 29 117 0.0 1.6 0.00 0.00 0.00 60 1009.6
20260906005820 30 351 0.0 3.2 0.00 0.00 0.00 60 1009.6
20260906005319 30 302 0.0 3.2 0.00 0.00 0.00 61 1009.5
20260906004818 30 21 0.0 3.2 0.00 0.00 0.00 59 1009.6
20260906004318 30 64 8.0 9.7 0.00 0.00 0.00 59 1009.9
20260906003813 30 0 0.0 3.2 0.00 0.00 0.00 59 1009.9
20260906003308 30 83 3.2 8.0 0.00 0.00 0.00 58 1010.0
20260906002804 30 86 1.6 12.9 0.00 0.00 0.00 57 1010.2
20260906002306 31 30 3.2 14.5 0.00 0.00 0.00 57 1010.0
20260906001759 31 46 6.4 11.3 0.00 0.00 0.00 58 1010.2
20260906001254 31 42 8.0 17.7 0.00 0.00 0.00 60 1010.0
20260906000750 32 100 9.7 14.5 0.00 0.00 0.00 59 1010.2
20260906000250 32 54 9.7 12.9 0.00 0.00 0.00 58 1010.0
20260905235745 33 52 3.2 14.5 0.00 0.00 0.00 57 1010.0
20260905235244 34 27 9.7 20.9 0.00 0.00 0.00 54 1010.1
20260905234740 35 57 3.2 4.8 0.00 0.00 0.00 53 1009.7
20260905234235 35 57 0.0 3.2 0.00 0.00 0.00 50 1009.5
20260905233730 35 8 1.6 3.2 0.00 0.00 0.00 51 1009.3
20260905233230 35 323 0.0 1.6 0.00 0.00 0.00 49 1009.4
20260905232724 35 279 1.6 4.8 0.00 0.00 0.00 47 1009.3
20260905232220 35 335 0.0 4.8 0.00 0.00 0.00 47 1009.2
20260905231716 35 327 3.2 3.2 0.00 0.00 0.00 48 1009.1
20260905231211 35 264 3.2 4.8 0.00 0.00 0.00 46 1009.1
20260905230707 35 252 1.6 4.8 0.00 0.00 0.00 46 1009.1
20260905230205 36 279 3.2 8.0 0.00 0.00 0.00 46 1009.1
20260905225705 36 278 3.2 4.8 0.00 0.00 0.00 46 1009.2
20260905225200 36 263 1.6 6.4 0.00 0.00 0.00 45 1009.2
20260905224659 36 257 0.0 4.8 0.00 0.00 0.00 44 1009.1
20260905224153 36 271 1.6 4.8 0.00 0.00 0.00 44 1009.1
20260905223650 36 315 4.8 6.4 0.00 0.00 0.00 43 1009.2
20260905223148 36 277 0.0 3.2 0.00 0.00 0.00 43 1009.1
20260905222643 36 328 0.0 4.8 0.00 0.00 0.00 43 1009.1
20260905222143 37 254 3.2 4.8 0.00 0.00 0.00 42 1009.2
20260905221638 37 307 1.6 3.2 0.00 0.00 0.00 44 1008.9
20260905221135 37 226 4.8 9.7 0.00 0.00 0.00 40 1009.0
20260905220630 38 272 3.2 6.4 0.00 0.00 0.00 40 1009.2
20260905220126 38 242 1.6 6.4 0.00 0.00 0.00 39 1009.3
20260905215626 38 231 4.8 4.8 0.00 0.00 0.00 38 1009.1
20260905215121 38 298 3.2 4.8 0.00 0.00 0.00 39 1009.2
20260905214618 38 267 6.4 6.4 0.00 0.00 0.00 38 1009.0
20260905214117 38 14 0.0 8.0 0.00 0.00 0.00 40 1009.2
20260905213613 38 276 3.2 8.0 0.00 0.00 0.00 38 1009.2
20260905213108 39 304 6.4 6.4 0.00 0.00 0.00 37 1009.2
20260905212609 39 245 3.2 4.8 0.00 0.00 0.00 39 1009.2
20260905212108 38 221 3.2 8.0 0.00 0.00 0.00 40 1009.2
20260905211603 38 281 3.2 6.4 0.00 0.00 0.00 41 1009.4
20260905211059 39 263 8.0 9.7 0.00 0.00 0.00 39 1009.5
20260905210554 39 266 3.2 4.8 0.00 0.00 0.00 40 1009.4
20260905210049 38 217 0.0 6.4 0.00 0.00 0.00 40 1009.6
20260905205549 38 273 4.8 8.0 0.00 0.00 0.00 42 1009.7
20260905205048 38 262 3.2 8.0 0.00 0.00 0.00 41 1009.6
20260905204543 38 233 3.2 6.4 0.00 0.00 0.00 42 1009.6
20260905204038 38 223 3.2 8.0 0.00 0.00 0.00 41 1009.6
20260905203538 38 263 4.8 9.7 0.00 0.00 0.00 40 1009.8
20260905203033 38 214 1.6 8.0 0.00 0.00 0.00 41 1009.8
20260905202528 39 271 1.6 8.0 0.00 0.00 0.00 41 1010.0
20260905202024 38 223 3.2 6.4 0.00 0.00 0.00 39 1009.9
20260905201520 38 229 1.6 8.0 0.00 0.00 0.00 40 1010.0
20260905201019 38 265 4.8 9.7 0.00 0.00 0.00 41 1009.9
20260905200515 38 240 3.2 12.9 0.00 0.00 0.00 40 1010.3
20260905200015 39 275 4.8 8.0 0.00 0.00 0.00 40 1010.3
20260905195514 38 302 0.0 4.8 0.00 0.00 0.00 42 1010.6
20260905195010 38 226 1.6 4.8 0.00 0.00 0.00 42 1010.6
20260905194509 38 230 4.8 9.7 0.00 0.00 0.00 43 1010.6
20260905194009 38 238 3.2 9.7 0.00 0.00 0.00 42 1010.7
20260905193504 38 216 4.8 9.7 0.00 0.00 0.00 42 1010.8
20260905192959 38 226 1.6 6.4 0.00 0.00 0.00 43 1010.6
20260905192454 37 177 3.2 8.0 0.00 0.00 0.00 43 1010.9
20260905191950 38 221 9.7 9.7 0.00 0.00 0.00 41 1010.8
20260905191444 38 307 1.6 3.2 0.00 0.00 0.00 43 1010.9
20260905190943 37 189 1.6 9.7 0.00 0.00 0.00 44 1011.0
20260905190441 37 148 1.6 6.4 0.00 0.00 0.00 45 1011.2
20260905185940 37 295 4.8 6.4 0.00 0.00 0.00 46 1011.0
20260905185435 37 266 3.2 4.8 0.00 0.00 0.00 46 1011.1
20260905184933 37 262 6.4 8.0 0.00 0.00 0.00 45 1011.3
20260905184428 37 138 3.2 6.4 0.00 0.00 0.00 46 1011.5
20260905183927 36 255 0.0 6.4 0.00 0.00 0.00 47 1011.3
20260905183422 37 14 4.8 11.3 0.00 0.00 0.00 46 1011.6
20260905182917 37 127 0.0 6.4 0.00 0.00 0.00 49 1011.8
20260905182416 37 10 0.0 4.8 0.00 0.00 0.00 47 1011.9
20260905181912 37 102 0.0 3.2 0.00 0.00 0.00 48 1011.9
20260905181412 37 247 1.6 4.8 0.00 0.00 0.00 49 1012.0
20260905180911 37 124 4.8 4.8 0.00 0.00 0.00 48 1012.1
20260905180407 36 260 3.2 3.2 0.00 0.00 0.00 50 1012.1
20260905175907 36 86 0.0 8.0 0.00 0.00 0.00 49 1012.1
20260905175407 36 218 0.0 6.4 0.00 0.00 0.00 48 1012.0
20260905174907 36 265 0.0 6.4 0.00 0.00 0.00 52 1012.2
20260905174403 36 231 4.8 6.4 0.00 0.00 0.00 50 1012.3
20260905173858 36 216 6.4 8.0 0.00 0.00 0.00 51 1012.3
20260905173354 36 123 1.6 6.4 0.00 0.00 0.00 51 1012.3
20260905172849 36 357 0.0 4.8 0.00 0.00 0.00 50 1012.4
20260905172347 36 316 0.0 4.8 0.00 0.00 0.00 52 1012.5
20260905171843 36 286 4.8 6.4 0.00 0.00 0.00 53 1012.5
20260905171340 36 246 1.6 6.4 0.00 0.00 0.00 55 1012.4
20260905170836 35 256 1.6 6.4 0.00 0.00 0.00 54 1012.7
20260905170332 35 219 6.4 6.4 0.00 0.00 0.00 54 1012.5
20260905165831 35 218 4.8 8.0 0.00 0.00 0.00 54 1012.5
20260905165326 35 280 4.8 6.4 0.00 0.00 0.00 54 1012.8
20260905164827 35 185 1.6 6.4 0.00 0.00 0.00 54 1012.8
20260905164326 35 259 4.8 6.4 0.00 0.00 0.00 56 1012.9
20260905163822 34 217 0.0 4.8 0.00 0.00 0.00 55 1013.0
20260905163319 33 225 4.8 8.0 0.00 0.00 0.00 57 1013.0
20260905162814 33 274 3.2 4.8 0.00 0.00 0.00 56 1013.1
20260905162309 33 269 3.2 4.8 0.00 0.00 0.00 57 1013.2
20260905161809 33 211 3.2 6.4 0.00 0.00 0.00 58 1013.1
20260905161308 33 234 3.2 4.8 0.00 0.00 0.00 61 1013.3
20260905160806 33 279 3.2 6.4 0.00 0.00 0.00 61 1013.3
20260905160300 33 258 3.2 6.4 0.00 0.00 0.00 59 1013.4
20260905155755 32 286 3.2 4.8 0.00 0.00 0.00 61 1013.4
20260905155254 32 303 1.6 6.4 0.00 0.00 0.00 61 1013.4
20260905154748 32 104 0.0 3.2 0.00 0.00 0.00 66 1013.6
20260905154245 31 319 0.0 6.4 0.00 0.00 0.00 64 1013.5
20260905153740 31 264 0.0 4.8 0.00 0.00 0.00 67 1013.5
20260905153236 31 110 3.2 3.2 0.00 0.00 0.00 69 1013.8
20260905152731 31 294 0.0 3.2 0.00 0.00 0.00 71 1013.7
20260905152230 31 129 3.2 4.8 0.00 0.00 0.00 68 1013.7
20260905151730 31 124 0.0 4.8 0.00 0.00 0.00 70 1013.5
20260905151226 30 119 3.2 4.8 0.00 0.00 0.00 72 1013.6
20260905150721 29 106 0.0 3.2 0.00 0.00 0.00 76 1013.7
20260905150220 28 221 0.0 1.6 0.00 0.00 0.00 79 1013.8
20260905145718 28 126 0.0 3.2 0.00 0.00 0.00 80 1013.8
20260905145213 28 295 3.2 3.2 0.00 0.00 0.00 79 1013.6
20260905144712 28 302 0.0 3.2 0.00 0.00 0.00 80 1013.7
20260905144211 28 265 0.0 3.2 0.00 0.00 0.00 80 1013.9
20260905143706 28 340 3.2 3.2 0.00 0.00 0.00 77 1013.8
20260905143206 28 340 3.2 3.2 0.00 0.00 0.00 77 1013.8
20260905142704 28 64 0.0 3.2 0.00 0.00 0.00 78 1013.7
20260905142205 28 333 0.0 1.6 0.00 0.00 0.00 80 1013.8
20260905141700 28 330 1.6 3.2 0.00 0.00 0.00 80 1013.8
20260905141156 28 53 0.0 1.6 0.00 0.00 0.00 82 1013.9
20260905140651 28 275 0.0 3.2 0.00 0.00 0.00 82 1013.9
20260905140150 27 116 1.6 3.2 0.00 0.00 0.00 82 1013.9
20260905135646 27 55 0.0 1.6 0.00 0.00 0.00 82 1013.8
20260905135141 27 118 3.2 3.2 0.00 0.00 0.00 83 1013.8
20260905134635 27 141 0.0 3.2 0.00 0.00 0.00 83 1013.8
20260905134134 27 94 1.6 3.2 0.00 0.00 0.00 85 1013.8
20260905133630 27 97 1.6 3.2 0.00 0.00 0.00 85 1014.0
20260905133130 27 77 1.6 3.2 0.00 0.00 0.00 85 1013.8
20260905132630 27 85 1.6 3.2 0.00 0.00 0.00 85 1013.8
20260905132125 27 100 0.0 3.2 0.00 0.00 0.00 86 1013.7
20260905131620 27 95 1.6 3.2 0.00 0.00 0.00 86 1013.8
20260905131115 27 131 1.6 3.2 0.00 0.00 0.00 86 1013.9
20260905130614 27 99 1.6 4.8 0.00 0.00 0.00 86 1014.0
20260905130109 26 103 1.6 3.2 0.00 0.00 0.00 87 1013.9
20260905125609 26 112 1.6 3.2 0.00 0.00 0.00 88 1013.8
20260905125104 26 100 3.2 3.2 0.00 0.00 0.00 90 1014.0
20260905124601 26 96 1.6 3.2 0.00 0.00 0.00 92 1014.0
20260905124056 26 98 0.0 1.6 0.00 0.00 0.00 93 1013.9
20260905123551 26 49 0.0 1.6 0.00 0.00 0.00 94 1014.0
20260905123049 25 89 0.0 3.2 0.00 0.00 0.00 95 1013.9
20260905122548 25 53 0.0 3.2 0.00 0.00 0.00 96 1013.7
20260905122043 25 60 1.6 3.2 0.00 0.00 0.00 97 1013.6
20260905121538 25 54 1.6 3.2 0.00 0.00 0.00 97 1013.8
20260905121033 25 61 1.6 3.2 0.00 0.00 0.00 96 1013.6
20260905120532 25 72 0.0 3.2 0.00 0.00 0.00 97 1013.6
20260905120028 25 66 1.6 3.2 0.00 0.00 0.00 96 1013.6
20260905115526 24 44 3.2 3.2 0.00 0.00 0.00 96 1013.5
20260905115021 24 81 0.0 3.2 0.00 0.00 0.00 96 1013.4
20260905114521 24 68 0.0 3.2 0.00 0.00 0.00 96 1013.3
20260905114020 24 85 1.6 3.2 0.00 0.00 0.00 96 1013.4
20260905113515 24 89 0.0 3.2 0.00 0.00 0.00 96 1013.3
20260905113011 24 65 1.6 3.2 0.00 0.00 0.00 96 1013.2
20260905112506 24 70 0.0 3.2 0.00 0.00 0.00 96 1013.0
20260905112001 24 69 1.6 3.2 0.00 0.00 0.00 96 1013.1
20260905111501 24 37 0.0 3.2 0.00 0.00 0.00 96 1013.1
20260905110955 24 72 0.0 3.2 0.00 0.00 0.00 96 1012.9
20260905110454 24 79 1.6 3.2 0.00 0.00 0.00 96 1012.7
20260905105955 24 73 0.0 3.2 0.00 0.00 0.00 95 1012.9
20260905105454 24 58 0.0 3.2 0.00 0.00 0.00 95 1012.7
20260905104949 24 77 1.6 3.2 0.00 0.00 0.00 95 1013.0
20260905104445 24 88 3.2 3.2 0.00 0.00 0.00 95 1012.6
20260905103945 24 32 1.6 3.2 0.00 0.00 0.00 95 1012.7
20260905103440 24 51 3.2 3.2 0.00 0.00 0.00 95 1012.6
20260905102936 24 72 3.2 3.2 0.00 0.00 0.00 95 1012.6
20260905102432 24 61 3.2 3.2 0.00 0.00 0.00 95 1012.6
20260905101927 24 72 0.0 3.2 0.00 0.00 0.00 95 1012.6
20260905101425 24 91 1.6 3.2 0.00 0.00 0.00 95 1012.7
20260905100920 24 70 1.6 3.2 0.00 0.00 0.00 95 1012.5
20260905100416 24 77 1.6 3.2 0.00 0.00 0.00 95 1012.5
20260905095915 24 58 3.2 4.8 0.00 0.00 0.00 95 1012.5
20260905095410 24 81 1.6 3.2 0.00 0.00 0.00 94 1012.3
20260905094910 25 59 0.0 3.2 0.00 0.00 0.00 94 1012.3
20260905094406 25 53 1.6 3.2 0.00 0.00 0.00 94 1012.4
20260905093905 25 53 1.6 3.2 0.00 0.00 0.00 94 1012.4
20260905093401 25 83 1.6 3.2 0.00 0.00 0.00 94 1012.4
20260905092856 25 27 0.0 3.2 0.00 0.00 0.00 94 1012.2
20260905092357 25 79 1.6 3.2 0.00 0.00 0.00 94 1012.2
20260905091856 25 70 0.0 3.2 0.00 0.00 0.00 94 1012.1
20260905091356 25 68 1.6 3.2 0.00 0.00 0.00 94 1012.2
20260905090855 25 70 1.6 3.2 0.00 0.00 0.00 94 1012.3
20260905090351 25 75 0.0 3.2 0.00 0.00 0.00 94 1012.2
20260905085850 25 38 1.6 3.2 0.00 0.00 0.00 94 1012.2
20260905085345 25 66 3.2 4.8 0.00 0.00 0.00 94 1012.3
20260905084841 25 85 1.6 3.2 0.00 0.00 0.00 93 1012.3
20260905084340 25 63 1.6 3.2 0.00 0.00 0.00 93 1012.4
20260905083835 25 84 0.0 3.2 0.00 0.00 0.00 93 1012.1
20260905083331 25 86 1.6 3.2 0.00 0.00 0.00 93 1012.3
20260905082826 25 62 0.0 3.2 0.00 0.00 0.00 93 1012.4
20260905082323 25 76 1.6 3.2 0.00 0.00 0.00 93 1012.5
20260905081823 25 89 0.0 1.6 0.00 0.00 0.00 93 1012.4
20260905081318 25 70 1.6 3.2 0.00 0.00 0.00 93 1012.4
20260905080817 25 60 1.6 3.2 0.00 0.00 0.00 92 1012.4
20260905080312 25 63 1.6 3.2 0.00 0.00 0.00 92 1012.3
20260905075810 25 89 0.0 3.2 0.00 0.00 0.00 92 1012.4
20260905075310 25 76 0.0 3.2 0.00 0.00 0.00 92 1012.5
20260905074809 25 105 3.2 3.2 0.00 0.00 0.00 92 1012.4
20260905074306 25 326 0.0 3.2 0.00 0.00 0.00 92 1012.2
20260905073801 25 296 0.0 1.6 0.00 0.00 0.00 92 1012.3
20260905073256 25 73 1.6 3.2 0.00 0.00 0.00 92 1012.3
20260905072755 25 89 1.6 3.2 0.00 0.00 0.00 91 1012.5
20260905072251 25 82 1.6 3.2 0.00 0.00 0.00 91 1012.5
20260905071748 25 73 1.6 3.2 0.00 0.00 0.00 91 1012.4
20260905071243 25 62 0.0 3.2 0.00 0.00 0.00 90 1012.3
20260905070738 25 52 1.6 3.2 0.00 0.00 0.00 90 1012.4
20260905070234 25 76 1.6 3.2 0.00 0.00 0.00 90 1012.6
20260905065733 25 88 3.2 3.2 0.00 0.00 0.00 90 1012.7
20260905065227 25 31 0.0 3.2 0.00 0.00 0.00 90 1012.7
20260905064722 25 41 0.0 3.2 0.00 0.00 0.00 88 1012.6
20260905064218 25 45 0.0 3.2 0.00 0.00 0.00 88 1012.6
20260905063716 25 65 3.2 3.2 0.00 0.00 0.00 88 1012.8
20260905063213 25 92 3.2 3.2 0.00 0.00 0.00 88 1012.6
20260905062708 25 52 0.0 3.2 0.00 0.00 0.00 87 1012.7
20260905062208 25 82 1.6 3.2 0.00 0.00 0.00 87 1012.7
20260905061708 26 64 0.0 3.2 0.00 0.00 0.00 87 1012.7
20260905061202 26 78 0.0 3.2 0.00 0.00 0.00 86 1012.6
20260905060657 26 70 3.2 3.2 0.00 0.00 0.00 86 1012.7
20260905060154 26 87 1.6 3.2 0.00 0.00 0.00 86 1012.7
20260905055652 26 65 3.2 3.2 0.00 0.00 0.00 86 1012.6
20260905055148 26 62 3.2 4.8 0.00 0.00 0.00 86 1012.8
20260905054643 26 83 0.0 4.8 0.00 0.00 0.00 86 1012.6
20260905054139 26 83 0.0 3.2 0.00 0.00 0.00 85 1012.8
20260905053638 26 60 0.0 3.2 0.00 0.00 0.00 85 1012.7
20260905053133 26 85 1.6 4.8 0.00 0.00 0.00 84 1012.7
20260905052633 26 86 0.0 3.2 0.00 0.00 0.00 84 1012.5
20260905052128 26 83 3.2 3.2 0.00 0.00 0.00 84 1012.8
20260905051623 26 68 1.6 3.2 0.00 0.00 0.00 83 1012.8
20260905051120 26 74 1.6 3.2 0.00 0.00 0.00 83 1012.6
20260905050616 26 103 0.0 3.2 0.00 0.00 0.00 83 1012.5
20260905050112 26 111 0.0 1.6 0.00 0.00 0.00 83 1012.7
20260905045612 26 49 3.2 3.2 0.00 0.00 0.00 82 1012.7
20260905045108 26 37 0.0 3.2 0.00 0.00 0.00 82 1012.6
20260905044607 26 151 0.0 1.6 0.00 0.00 0.00 82 1012.5
20260905044102 26 111 1.6 3.2 0.00 0.00 0.00 81 1012.7
20260905043601 26 82 0.0 3.2 0.00 0.00 0.00 81 1012.6
20260905043057 27 50 0.0 3.2 0.00 0.00 0.00 80 1012.7
20260905042555 27 50 0.0 3.2 0.00 0.00 0.00 80 1012.8
20260905042051 27 89 1.6 3.2 0.00 0.00 0.00 79 1013.1
20260905041546 27 68 0.0 4.8 0.00 0.00 0.00 80 1012.8
20260905041041 27 80 0.0 3.2 0.00 0.00 0.00 79 1012.8
20260905040541 27 59 1.6 3.2 0.00 0.00 0.00 79 1012.9
20260905040039 27 47 3.2 3.2 0.00 0.00 0.00 79 1012.8
20260905035535 27 74 0.0 3.2 0.00 0.00 0.00 79 1013.0
20260905035032 27 83 3.2 3.2 0.00 0.00 0.00 78 1013.0
20260905034528 27 58 1.6 3.2 0.00 0.00 0.00 77 1013.0
20260905034027 27 57 0.0 3.2 0.00 0.00 0.00 77 1013.1
20260905033526 27 97 1.6 3.2 0.00 0.00 0.00 76 1013.2
20260905033022 28 51 1.6 3.2 0.00 0.00 0.00 75 1013.3
20260905032517 28 60 1.6 3.2 0.00 0.00 0.00 75 1013.2
20260905032012 28 82 1.6 3.2 0.00 0.00 0.00 75 1013.1
20260905031508 28 68 1.6 3.2 0.00 0.00 0.00 74 1013.2
20260905031003 28 83 0.0 3.2 0.00 0.00 0.00 73 1013.2
20260905030458 28 53 0.0 3.2 0.00 0.00 0.00 73 1013.3
20260905025957 28 60 0.0 3.2 0.00 0.00 0.00 72 1013.3
20260905025453 28 60 0.0 3.2 0.00 0.00 0.00 71 1013.4
20260905024949 29 24 1.6 3.2 0.00 0.00 0.00 72 1013.3
20260905024449 29 101 0.0 3.2 0.00 0.00 0.00 71 1013.2
20260905023945 29 58 0.0 3.2 0.00 0.00 0.00 70 1013.3
20260905023440 29 45 0.0 3.2 0.00 0.00 0.00 70 1013.2
20260905022939 28 59 3.2 8.0 0.00 0.00 0.00 72 1013.4